This demonstration page uses our WeatherBlox Daily Observations layout. Learn more.

38.89511, -77.03637

Hourly Observations for September 29, 2018

Temp ( °F °C ) Dew Point ( °F °C ) Humidity (%) Winds ( mph kmh ) Pressure ( in mb ) Visibility ( mi km ) Precip ( " mm )
12:52 am 00:52 Mostly Clear 64 17.8 61 16.1 90 90 SSW 3 6 30.17 1022 10 16.0934 0 0
1:52 am 01:52 Partly Cloudy 64 17.8 61 16.1 90 90 SW 3 6 30.16 1021 10 16.0934 0 0
2:52 am 02:52 Mostly Cloudy 64 17.8 60 15.6 87 87 Calm 30.16 1021 10 16.0934 0 0
3:52 am 03:52 Mostly Cloudy 64 17.8 61 16.1 90 90 Calm 30.16 1021 10 16.0934 0 0
4:52 am 04:52 Partly Cloudy 63 17.2 60 15.6 90 90 SSW 3 6 30.17 1022 10 16.0934 0 0
5:52 am 05:52 Mostly Cloudy 63 17.2 60 15.6 90 90 S 5 7 30.18 1022 10 16.0934 0 0
6:52 am 06:52 Partly Cloudy 64 17.8 61 16.1 90 90 SSW 3 6 30.19 1022 10 16.0934 0 0
7:52 am 07:52 Partly Cloudy 65 18.3 61 16.1 87 87 Calm 30.21 1023 10 16.0934 0 0
8:52 am 08:52 Mostly Sunny 69 20.6 61 16.1 76 76 Calm 30.22 1023 10 16.0934 0 0
9:52 am 09:52 Mostly Sunny 71 21.7 59 15 66 66 NNW 14 22 30.24 1024 10 16.0934 0 0
10:52 am 10:52 Mostly Sunny 73 22.8 58 14.4 59 59 NNW 12 19 30.24 1024 10 16.0934 0 0
11:52 am 11:52 Mostly Sunny 76 24.4 56 13.3 50 50 N 12 19 30.24 1024 10 16.0934 0 0
12:52 pm 12:52 Mostly Sunny 77 25 56 13.3 48 48 NNW 7 11 30.24 1024 10 16.0934 0 0
1:52 pm 13:52 Partly Cloudy 78 25.6 54 12.2 43 43 N 10 17 30.22 1023 10 16.0934 0 0
2:52 pm 14:52 Partly Cloudy 80 26.7 55 12.8 42 42 WNW 9 15 30.21 1023 10 16.0934 0 0
3:52 pm 15:52 Partly Cloudy 79 26.1 54 12.2 42 42 WNW 9 15 30.2 1023 10 16.0934 0 0
4:52 pm 16:52 Partly Cloudy 78 25.6 54 12.2 43 43 NNW 9 15 30.21 1023 10 16.0934 0 0
5:52 pm 17:52 Partly Cloudy 77 25 54 12.2 45 45 NW 9 15 30.21 1023 10 16.0934 0 0
6:52 pm 18:52 Partly Cloudy 74 23.3 55 12.8 52 52 NNW 6 9 30.22 1023 10 16.0934 0 0
7:52 pm 19:52 Partly Cloudy 73 22.8 54 12.2 51 51 NNW 8 13 30.24 1024 10 16.0934 0 0
8:52 pm 20:52 Partly Cloudy 70 21.1 57 13.9 64 64 NNW 7 11 30.25 1025 10 16.0934 0 0
9:52 pm 21:52 Partly Cloudy 68 20 58 14.4 70 70 N 5 7 30.26 1025 10 16.0934 0 0
10:52 pm 22:52 Partly Cloudy 67 19.4 59 15 76 76 N 5 7 30.27 1025 10 16.0934 0 0
11:52 pm 23:52 Partly Cloudy 66 18.9 57 13.9 73 73 NNE 7 11 30.27 1025 10 16.0934 0 0

Powered by AerisWeather